Location: Dakoming
(43.5975°N, 104.0727°W)
Time: 07:56:45
(UTC+00:00)

X-37B - Visible Passes

Search period start: 24 January 2022 00:00
Search period end: 03 February 2022 00:00
Orbit: 334 x 337 km, 45.0° (Epoch: 11 January)

Date Brightness Start Highest point End Pass type
(mag) Time Alt. Az. Time Alt. Az. Time Alt. Az.
26 Jan 3.2 02:07:10 10° SW 02:07:38 13° SSW 02:07:38 13° SSW visible
27 Jan 2.7 00:53:36 10° S 00:54:56 13° SE 00:56:12 10° ESE visible
27 Jan 3.7 02:27:11 10° WSW 02:27:26 12° WSW 02:27:26 12° WSW visible
28 Jan 1.6 01:12:36 10° SW 01:15:06 28° SSE 01:15:56 23° ESE visible
29 Jan 0.3 01:32:37 10° WSW 01:35:25 60° SSE 01:35:38 58° SE visible
30 Jan 1.1 01:53:01 10° W 01:55:16 51° W 01:55:16 51° W visible
31 Jan 0.6 00:38:03 10° WSW 00:40:51 60° SSE 00:43:40 10° E visible
31 Jan 2.7 02:13:32 10° W 02:14:53 24° WNW 02:14:53 24° WNW visible
01 Feb 0.3 00:58:27 10° W 01:01:17 79° NNW 01:03:15 18° ENE visible
01 Feb 3.7 02:34:03 10° WNW 02:34:29 13° WNW 02:34:29 13° WNW visible
02 Feb 0.4 01:18:58 10° W 01:21:47 61° N 01:22:51 32° ENE visible
